• Join FlightAware (Why Join?)
  • Login
  • US Flag GB Flag 
11:22 EDT


 

Airport Tracker/Info


-or-


 

Live Flight TrackerFlight Track Log ✈ FSR302 ✈ 16-Jan-2013 ✈ KPHL - KVQQ

Flight Track Log - Related Links

Times and Time Zones

All times are in EST time to prevent confusion due to time zone crossing. See the FSR302 flight status page for this flight to view local times or setup timezone preferences in your user account.

Time Position Orientation Groundspeed Altitude Reporting Facility
EST Latitude Longitude Course Direction KTS MPH feet Rate Location/Type
07:30 39.8850 -75.1992 91° East 157 181 700  Level FAA TRACON SMA TRACON (SMA)
07:30 39.8847 -75.1747 91° East 201 231 1,600 2,820 Climbing FAA TRACON SMA TRACON (SMA)
07:30 39.8772 -75.1539 115° Southeast 208 239 2,600 3,000 Climbing FAA TRACON SMA TRACON (SMA)
07:31 39.8689 -75.1317 116° Southeast 220 253 3,600 2,520 Climbing FAA TRACON SMA TRACON (SMA)
07:31 39.8517 -75.1072 133° Southeast 238 274 4,300 2,520 Climbing FAA TRACON SMA TRACON (SMA)
07:31 39.8319 -75.1014 167° South 232 267 5,300 2,400 Climbing FAA TRACON SMA TRACON (SMA)
07:32 39.8114 -75.1047 187° South 238 274 5,900 2,520 Climbing FAA TRACON SMA TRACON (SMA)
07:32 39.7922 -75.1156 203° Southwest 237 273 7,000 3,300 Climbing FAA TRACON SMA TRACON (SMA)
07:32 39.7700 -75.1333 212° Southwest 247 284 8,100 3,120 Climbing FAA TRACON SMA TRACON (SMA)
07:33 39.7514 -75.1478 211° Southwest 252 290 9,100 3,120 Climbing FAA TRACON SMA TRACON (SMA)
07:33 39.7272 -75.1656 210° Southwest 266 306 10,200 3,600 Climbing FAA TRACON SMA TRACON (SMA)
07:33 39.7061 -75.1814 210° Southwest 270 311 11,500 2,520 Climbing FAA TRACON SMA TRACON (SMA)
07:34 39.6853 -75.1981 212° Southwest 298 343 11,900 900 Climbing FAA TRACON SMA TRACON (SMA)
07:34 39.6597 -75.2167 209° Southwest 345 397 12,100 2,100 Climbing FAA TRACON SMA TRACON (SMA)
07:34 39.6281 -75.2381 207° Southwest 332 382 13,300 3,420 Climbing FAA TRACON SMA TRACON (SMA)
07:35 39.6042 -75.2547 208° Southwest 320 368 14,400 3,000 Climbing FAA TRACON SMA TRACON (SMA)
07:35 39.5822 -75.2711 210° Southwest 303 349 15,300 2,400 Climbing FAA TRACON SMA TRACON (SMA)
07:35 39.5550 -75.2906 209° Southwest 287 330 16,000 1,020 Climbing FAA TRACON SMA TRACON (SMA)
07:36 39.5322 -75.3069 209° Southwest 297 342 16,000 -180 Level FAA TRACON SMA TRACON (SMA)
07:36 39.5108 -75.3214 208° Southwest 298 343 15,900  Descending FAA TRACON SMA TRACON (SMA)
07:36 39.4794 -75.3342 197° South 297 342 16,000 120 Climbing FAA TRACON SMA TRACON (SMA)
07:37 39.4542 -75.3392 189° South 299 344 16,000  Level FAA TRACON SMA TRACON (SMA)
07:37 39.4319 -75.3425 187° South 298 343 16,000  Level FAA TRACON SMA TRACON (SMA)
07:37 39.3972 -75.3469 186° South 301 346 16,000 120 Level FAA TRACON SMA TRACON (SMA)
07:38 39.3708 -75.3503 186° South 303 349 16,100 720 Climbing FAA TRACON SMA TRACON (SMA)
07:38 39.3472 -75.3547 188° South 309 356 16,500 1,320 Climbing FAA TRACON SMA TRACON (SMA)
07:38 39.3106 -75.3622 189° South 309 356 17,000 720 Climbing FAA TRACON SMA TRACON (SMA)
07:39 39.2858 -75.3656 186° South 310 357 17,000  Level FAA TRACON SMA TRACON (SMA)
07:39 39.2578 -75.3714 189° South 311 358 17,000  Level FAA TRACON SMA TRACON (SMA)
07:39 39.2453 -75.3736 188° South 311 358 17,000 480 Level FAA TRACON SMA TRACON (SMA)
07:41 39.1217 -75.3936 187° South 318 366 17,800 2,160 Climbing Washington Center
07:42 39.0342 -75.4072 187° South 318 366 21,900 3,000 Climbing Washington Center
07:43 38.9528 -75.4261 190° South 312 359 23,900 1,800 Climbing Washington Center
07:44 38.8694 -75.4742 204° Southwest 312 359 25,600 1,740 Climbing Washington Center
07:45 38.7819 -75.5225 203° Southwest 331 381 27,400 1,200 Climbing Washington Center
07:46 38.6944 -75.5889 211° Southwest 346 398 28,000 300 Climbing Washington Center
07:47 38.6047 -75.6528 209° Southwest 366 421 28,000 660 Level Washington Center
07:48 38.5131 -75.7192 210° Southwest 378 435 29,400 1,680 Climbing Washington Center
07:49 38.4275 -75.7853 211° Southwest 378 435 31,500 1,860 Climbing Washington Center
07:50 38.3375 -75.8458 208° Southwest 378 435 33,100 1,560 Climbing Washington Center
07:51 38.2542 -75.9064 210° Southwest 373 429 34,600 1,500 Climbing Washington Center
07:52 38.1664 -75.9694 209° Southwest 366 421 36,100 1,440 Climbing Washington Center
07:53 38.0847 -76.0322 211° Southwest 361 415 37,600 1,380 Climbing Washington Center
07:54 38.0011 -76.0950 211° Southwest 356 410 39,000 1,200 Climbing Washington Center
07:55 37.9217 -76.1525 210° Southwest 351 404 40,000 480 Climbing Washington Center
07:56 37.8358 -76.2122 209° Southwest 346 398 40,000  Level Washington Center
07:57 37.7500 -76.2747 210° Southwest 351 404 40,000  Level Washington Center
07:58 37.6619 -76.3369 209° Southwest 357 411 40,000  Level Washington Center
07:59 37.5739 -76.3989 209° Southwest 357 411 40,000  Level Washington Center
08:00 37.4858 -76.4633 210° Southwest 357 411 40,000  Level Washington Center
08:01 37.4000 -76.5250 210° Southwest 357 411 40,000  Level Washington Center
08:02 37.3097 -76.5867 209° Southwest 357 411 40,000  Level Washington Center
08:03 37.2194 -76.6533 210° Southwest 357 411 40,000  Level Washington Center
08:04 37.1314 -76.7172 210° Southwest 362 417 40,000 180 Level Washington Center
08:05 37.0431 -76.7783 209° Southwest 362 417 40,400 600 Climbing Washington Center
08:06 36.9653 -76.8344 210° Southwest 362 417 41,300 1,020 Climbing Washington Center
08:07 36.8814 -76.8956 210° Southwest 357 411 42,500 840 Climbing Washington Center
08:08 36.7992 -76.9536 209° Southwest 352 405 43,000 240 Climbing Washington Center
08:09 36.7153 -77.0092 208° Southwest 352 405 43,000  Level Washington Center
08:10 36.6308 -77.0803 214° Southwest 362 417 43,000  Level Washington Center
08:11 36.5422 -77.1561 215° Southwest 367 422 43,000  Level Washington Center
08:12 36.4600 -77.2242 214° Southwest 361 415 43,000  Level Washington Center
08:13 36.3819 -77.2922 215° Southwest 356 410 43,000  Level Washington Center
08:14 36.2994 -77.3600 214° Southwest 356 410 43,000  Level Washington Center
08:15 36.2192 -77.4250 213° Southwest 356 410 43,000  Level Washington Center
08:16 36.1367 -77.4953 215° Southwest 356 410 43,000  Level Washington Center
08:17 36.0564 -77.5628 214° Southwest 356 410 43,000  Level Washington Center
08:18 35.9739 -77.6297 213° Southwest 356 410 43,000  Level Washington Center
08:19 35.8914 -77.6944 212° Southwest 356 410 43,000  Level Washington Center
08:20 35.8111 -77.7589 213° Southwest 351 404 43,000  Level Washington Center
08:21 35.7261 -77.8283 214° Southwest 362 417 43,000  Level Washington Center
08:22 35.6522 -77.8875 213° Southwest 362 417 43,000  Level Washington Center
08:23 35.5608 -77.9614 213° Southwest 362 417 43,000  Level Washington Center
08:24 35.4867 -78.0231 214° Southwest 362 417 43,000  Level Washington Center
08:25 35.3933 -78.0967 213° Southwest 367 422 43,000  Level Washington Center
08:26 35.3211 -78.1606 216° Southwest 367 422 43,000  Level Washington Center
08:27 35.2278 -78.2314 212° Southwest 362 417 43,000  Level Washington Center
08:28 35.1511 -78.2922 213° Southwest 362 417 43,000  Level Washington Center
08:29 35.0578 -78.3678 214° Southwest 367 422 43,000  Level Washington Center
08:30 34.9811 -78.4286 213° Southwest 367 422 43,000  Level Washington Center
08:31 34.8856 -78.5011 212° Southwest 367 422 43,000  Level Washington Center
08:32 34.7525 -78.6122 214° Southwest 388 447 43,000  Level Jacksonville Center
08:33 34.6672 -78.6797 213° Southwest 383 441 43,000  Level Jacksonville Center
08:34 34.5800 -78.7494 213° Southwest 383 441 43,000  Level Jacksonville Center
08:35 34.4944 -78.8167 213° Southwest 383 441 43,000  Level Jacksonville Center
08:36 34.3947 -78.8917 212° Southwest 383 441 43,000  Level Jacksonville Center
08:37 34.3092 -78.9611 214° Southwest 383 441 43,000  Level Jacksonville Center
08:38 34.2236 -79.0278 213° Southwest 383 441 43,000  Level Jacksonville Center
08:39 34.1361 -79.0967 213° Southwest 383 441 43,000  Level Jacksonville Center
08:40 34.0464 -79.1633 212° Southwest 383 441 43,000  Level Jacksonville Center
08:41 33.9628 -79.2369 216° Southwest 383 441 43,000  Level Jacksonville Center
08:42 33.8794 -79.3131 217° Southwest 383 441 43,000  Level Jacksonville Center
08:43 33.7981 -79.3889 218° Southwest 383 441 43,000  Level Jacksonville Center
08:44 33.7247 -79.4517 215° Southwest 378 435 43,000 -300 Level Jacksonville Center
08:45 33.6433 -79.5247 217° Southwest 378 435 42,400 -840 Descending Jacksonville Center
08:46 33.5578 -79.6025 217° Southwest 378 435 41,400 -1,260 Descending Jacksonville Center
08:47 33.4742 -79.6831 219° Southwest 383 441 39,900 -1,500 Descending Jacksonville Center
08:48 33.3906 -79.7606 218° Southwest 383 441 38,400 -1,500 Descending Jacksonville Center
08:49 33.3050 -79.8431 219° Southwest 388 447 36,900 -1,500 Descending Jacksonville Center
08:50 33.2192 -79.9256 219° Southwest 393 452 35,400 -1,500 Descending Jacksonville Center
08:51 33.1356 -80.0075 219° Southwest 393 452 34,000 -1,560 Descending Jacksonville Center
08:52 33.0458 -80.1022 222° Southwest 388 447 32,300 -1,560 Descending Jacksonville Center
08:53 32.9472 -80.1672 209° Southwest 418 481 30,900 -1,200 Descending Jacksonville Center
08:54 32.8358 -80.2325 206° Southwest 418 481 30,000 -480 Descending Jacksonville Center
08:55 32.7369 -80.2944 208° Southwest 418 481 30,000  Level Jacksonville Center
08:56 32.6339 -80.3617 209° Southwest 418 481 30,000  Level Jacksonville Center
08:57 32.5350 -80.4258 209° Southwest 413 475 30,000 -300 Level Jacksonville Center
08:58 32.4358 -80.4853 207° Southwest 407 468 29,500 -1,080 Descending Jacksonville Center
08:59 32.3350 -80.5519 209° Southwest 412 474 27,900 -1,560 Descending Jacksonville Center
09:00 32.2317 -80.6133 207° Southwest 417 480 26,400 -1,560 Descending Jacksonville Center
09:01 32.1325 -80.6797 210° Southwest 412 474 24,800 -1,500 Descending Jacksonville Center
09:02 32.0333 -80.7408 208° Southwest 412 474 23,400 -1,440 Descending Jacksonville Center
09:03 31.9486 -80.7919 207° Southwest 404 465 22,000 -1,560 Descending Jacksonville Center
09:04 31.8475 -80.8578 209° Southwest 381 438 20,300 -1,620 Descending Jacksonville Center
09:05 31.7647 -80.9061 206° Southwest 381 438 18,800 -1,500 Descending Jacksonville Center
09:06 31.6656 -80.9667 207° Southwest 371 427 17,300 -1,380 Descending Jacksonville Center
09:07 31.5786 -81.0197 207° Southwest 366 421 16,100 -660 Descending Jacksonville Center
09:08 31.4978 -81.0700 208° Southwest 366 421 16,000 -60 Descending Jacksonville Center
09:09 31.3986 -81.1303 207° Southwest 371 427 16,000 -60 Level Jacksonville Center
09:10 31.3008 -81.1711 200° South 371 427 15,900 -60 Descending Jacksonville Center
09:11 31.1964 -81.1706 180° South 371 427 15,900  Level Jacksonville Center
09:12 31.0919 -81.1628 176° South 371 427 15,900  Level Jacksonville Center
09:13 31.0147 -81.1642 181° South 373 429 15,900 60 Level Jacksonville Center
09:13 30.9897 -81.1647 181° South 371 427 16,000 60 Climbing Jacksonville Center
09:14 30.8853 -81.1594 178° South 376 433 16,000  Level Jacksonville Center
09:15 30.7808 -81.1564 179° South 376 433 16,000 -60 Level Jacksonville Center
09:16 30.6703 -81.1536 179° South 371 427 15,900 -360 Descending Jacksonville Center
09:17 30.5783 -81.1506 178° South 371 427 15,300 -1,560 Descending Jacksonville Center
09:18 30.4822 -81.1497 180° South 359 413 13,000 -2,580 Descending Jacksonville Center
09:19 30.3989 -81.1561 184° South 332 382 10,200 -2,580 Descending Jacksonville Center
09:20 30.3622 -81.2267 239° Southwest 276 318 8,000 -2,160 Descending Jacksonville Center
09:21 30.3422 -81.3111 255° West 275 316 6,000 -1,920 Descending Jacksonville Center
09:22 30.3225 -81.3908 254° West 257 296 4,200 -1,140 Descending Jacksonville Center
09:23 30.3003 -81.4586 249° West 246 283 3,900 -480 Descending Jacksonville Center
09:24 30.2969 -81.5356 267° West 224 258 3,300 -540 Descending Jacksonville Center
09:25 30.2956 -81.6078 269° West 230 265 2,900 -240 Descending Jacksonville Center
09:26 30.2881 -81.6969 264° West 262 302 2,900 -300 Level Jacksonville Center
09:27 30.2867 -81.7836 269° West 248 285 2,300 -660 Descending Jacksonville Center
09:28 30.2831 -81.8486 266° West 193 222 1,600 -840 Descending Jacksonville Center
09:29 30.2583 -81.8753 223° Southwest 106 122 600 -1,020 Descending Jacksonville Center
09:31 30.2167 -81.8667 257° West  Level FlightAware Approximate
09:38 30.2188 -81.8772 257° West  Level Estimated